Selinsgrove, PA

5:26 AM EST on December 15, 2019 (GMT -0500)
Penn Valley

Weather History for KSEG - October, 2019

Change the Weather History Date:

Thursday, October 17, 2019

  Actual Average (WUND) Record (WUND)
Temperature  
Mean Temperature 51 °F -  
Max Temperature 55 °F - - (-1)
Min Temperature 48 °F - - (-1)
Degree Days  
Heating Degree Days 14    
Growing Degree Days 1 (Base 50)    
Moisture  
Dew Point 39 °F    
Average Humidity 62    
Maximum Humidity 71    
Minimum Humidity 55    
Precipitation  
Precipitation 0.00 in - - ()
Sea Level Pressure  
Sea Level Pressure 29.58 in    
Wind  
Wind Speed 9 mph (WNW)    
Max Wind Speed 18 mph    
Max Gust Speed 31 mph    
Visibility 10 miles    
Events      
Averages and records for this station are not official NWS values.
T = Trace of Precipitation, MM = Missing Value Source: NWS Daily Summary

Daily Weather History Graph

Daily Weather History Graph

Search for Another Location

Airport or City:

Astronomy

Oct. 17, 2019 Rise Set
Actual Time 7:20 AM EDT 6:24 PM EDT
Civil Twilight 6:52 AM EDT 6:52 PM EDT
Nautical Twilight 6:21 AM EDT 7:23 PM EDT
Astronomical Twilight 5:49 AM EDT 7:55 PM EDT
Moon 8:53 PM EDT (10/17) 10:51 AM EDT (10/17)
Length of Visible Light 11h 59m
Length of Day
11h 03m
Waning Gibbous, 87% of the Moon is Illuminated
Oct 17
Waning Gibbous
Oct 21
Last Quarter
Oct 27
New
Nov 4
First Quarter
Nov 12
Full

Hourly Weather History & Observations

Time (EDT) Temp. Dew Point Humidity Pressure Visibility Wind Dir Wind Speed Gust Speed Precip Events Conditions
12:53 AM 51.1 °F 41.0 °F 68% 29.48 in 10.0 mi Variable 5.8 mph - N/A   Overcast
1:53 AM 51.1 °F 41.0 °F 68% 29.48 in 10.0 mi Variable 6.9 mph - N/A   Overcast
2:53 AM 51.1 °F 41.0 °F 68% 29.47 in 10.0 mi Variable 4.6 mph - N/A   Overcast
3:53 AM 50.0 °F 39.9 °F 68% 29.46 in 10.0 mi WNW 11.5 mph 21.9 mph 0.00 in   Overcast
4:53 AM 50.0 °F 37.9 °F 63% 29.46 in 10.0 mi West 9.2 mph 21.9 mph N/A   Overcast
5:53 AM 50.0 °F 37.0 °F 61% 29.46 in 10.0 mi West 9.2 mph 20.7 mph N/A   Overcast
6:53 AM 48.0 °F 39.0 °F 71% 29.47 in 10.0 mi West 8.1 mph - N/A   Overcast
7:53 AM 48.0 °F 39.0 °F 71% 29.49 in 10.0 mi West 9.2 mph 20.7 mph 0.00 in   Overcast
8:53 AM 50.0 °F 37.9 °F 63% 29.50 in 10.0 mi West 8.1 mph - N/A   Overcast
9:53 AM 50.0 °F 39.0 °F 66% 29.51 in 10.0 mi West 9.2 mph 29.9 mph N/A   Overcast
10:53 AM 54.0 °F 39.0 °F 57% 29.51 in 10.0 mi WNW 12.7 mph 29.9 mph N/A   Mostly Cloudy
11:53 AM 54.0 °F 39.0 °F 57% 29.52 in 10.0 mi WNW 13.8 mph 27.6 mph N/A   Overcast
12:53 PM 54.0 °F 37.9 °F 55% 29.54 in 10.0 mi WNW 16.1 mph 31.1 mph N/A   Overcast
1:53 PM 54.0 °F 37.9 °F 55% 29.55 in 10.0 mi WNW 12.7 mph 25.3 mph N/A   Overcast
2:53 PM 54.0 °F 37.9 °F 55% 29.58 in 10.0 mi WNW 18.4 mph 27.6 mph N/A   Overcast
3:53 PM 54.0 °F 37.9 °F 55% 29.60 in 10.0 mi WNW 17.3 mph 29.9 mph N/A   Overcast
4:53 PM 53.1 °F 37.9 °F 57% 29.63 in 10.0 mi WNW 16.1 mph 29.9 mph N/A   Overcast
5:53 PM 52.0 °F 37.9 °F 59% 29.65 in 10.0 mi North - - N/A   Overcast
6:53 PM 52.0 °F 37.9 °F 59% 29.68 in 10.0 mi WNW 10.4 mph 21.9 mph N/A   Overcast
7:53 PM 51.1 °F 39.0 °F 63% 29.71 in 10.0 mi WNW 12.7 mph 19.6 mph N/A   Overcast
8:53 PM 51.1 °F 37.9 °F 61% 29.73 in 10.0 mi WNW 10.4 mph 25.3 mph N/A   Overcast
9:53 PM 50.0 °F 37.9 °F 63% 29.77 in 10.0 mi WNW 10.4 mph 21.9 mph N/A   Overcast
10:53 PM 50.0 °F 37.9 °F 63% 29.79 in 10.0 mi WNW 10.4 mph 19.6 mph N/A   Overcast
11:53 PM 48.9 °F 37.9 °F 66% 29.79 in 10.0 mi WNW 8.1 mph - N/A   Overcast